Weather History for San Jose, Costa Rica

Change the Weather History Date:

Friday, July 25, 2014

  Actual Average Record
Temperature  
Mean Temperature 79 °F -  
Max Temperature 88 °F 80 °F 88 °F (2014)
Min Temperature 70 °F 64 °F 62 °F (1998)
Cooling Degree Days 14    
Growing Degree Days 29 (Base 50)    
Moisture  
Dew Point 62 °F    
Average Humidity 60    
Maximum Humidity 78    
Minimum Humidity 33    
Precipitation  
Precipitation 0.00 in 0.34 in - ()
Sea Level Pressure  
Sea Level Pressure 29.94 in    
Wind  
Wind Speed 10 mph ()    
Max Wind Speed 22 mph    
Max Gust Speed 29 mph    
Visibility 8.0 miles    
Events Rain    
Averages and records for this station are not official NWS values.
T = Trace of Precipitation, MM = Missing Value Source: Averaged Metar Reports

Daily Weather History Graph

Daily Weather History Graph

Search for Another Location

Airport:

Trip Planner

Search our weather history database for the weather conditions in past years. The results will help you decide how hot, cold, wet, or windy it might be!

Date:

Astronomy

Jul. 25, 2014 Rise Set
Actual Time 5:25 AM CST 6:01 PM CST
Civil Twilight 5:02 AM CST 6:23 PM CST
Nautical Twilight 4:36 AM CST 6:49 PM CST
Astronomical Twilight 4:10 AM CST 7:16 PM CST
Moon 4:18 AM CST (7/25) 5:06 PM CST (7/25)
Length of Visible Light 13h 20m
Length of Day
12h 35m
Waning Crescent, 1% of the Moon is Illuminated
Jul 25
Waning Crescent
Jul 26
New
Aug 3
First Quarter
Aug 10
Full
Aug 17
Last Quarter

Hourly Weather History & Observations

Time (CST) Temp. Heat Index Dew Point Humidity Pressure Visibility Wind Dir Wind Speed Gust Speed Precip Events Conditions
12:00 AM 72 °F - 64 °F 69% 29.81 in 12 mi ENE 8.1 mph - -  
12:00 AM 71.6 °F - 64.4 °F 78% 29.98 in - ENE 8.1 mph - N/A   Clear
1:00 AM 71.6 °F - 62.6 °F 73% 29.96 in - East 10.4 mph - N/A   Clear
2:00 AM 73.4 °F - 62.6 °F 69% 29.94 in - East 12.7 mph 24.2 mph N/A   Clear
3:00 AM 73 °F - 63 °F 62% 29.78 in 12 mi ESE 10.4 mph - -  
3:00 AM 73.4 °F - 62.6 °F 69% 29.95 in - ESE 10.4 mph - N/A   Clear
4:00 AM 69.8 °F - 62.6 °F 78% 29.95 in - NE 5.8 mph - N/A   Clear
5:00 AM 73.4 °F - 62.6 °F 69% 29.94 in - ESE 11.5 mph - N/A   Clear
6:00 AM 74 °F - 62 °F 58% 29.81 in 12 mi East 10.4 mph - -   Scattered Clouds
6:00 AM 73.4 °F - 62.6 °F 69% 29.96 in 6.2 mi East 10.4 mph - N/A   Mostly Cloudy
7:00 AM 75.2 °F - 64.4 °F 69% 30.00 in 6.2 mi ESE 10.4 mph - N/A   Mostly Cloudy
8:00 AM 78.8 °F - 62.6 °F 57% 29.99 in 6.2 mi East 11.5 mph - N/A   Mostly Cloudy
9:00 AM 81 °F - 62 °F 43% 29.84 in 12 mi East 20.7 mph - -   Overcast
9:00 AM 80.6 °F 81.8 °F 62.6 °F 54% 30.00 in 6.2 mi East 20.7 mph - N/A   Mostly Cloudy
10:00 AM 80.6 °F 81.8 °F 62.6 °F 54% 30.00 in 6.2 mi East 21.9 mph - N/A   Mostly Cloudy
11:00 AM 82.4 °F 82.9 °F 60.8 °F 48% 30.00 in 6.2 mi ENE 13.8 mph 25.3 mph N/A   Mostly Cloudy
12:00 PM 85 °F - 60 °F 33% 29.80 in 12 mi ENE 20.7 mph - -   Overcast
12:00 PM 86.0 °F 86.1 °F 60.8 °F 43% 29.97 in 6.2 mi ENE 20.7 mph - N/A   Mostly Cloudy
1:00 PM 86.0 °F 84.9 °F 57.2 °F 37% 29.95 in 6.2 mi ENE 17.3 mph 28.8 mph N/A   Mostly Cloudy
2:00 PM 86.0 °F 84.9 °F 57.2 °F 37% 29.93 in 6.2 mi ENE 12.7 mph 24.2 mph N/A   Mostly Cloudy
3:00 PM 82 °F - 61 °F 39% 29.76 in 12 mi ESE 8.1 mph - - Rain Light Rain
3:00 PM 82.4 °F 82.9 °F 60.8 °F 48% 29.92 in 6.2 mi ESE 8.1 mph - N/A Rain Light Rain
4:00 PM 77.0 °F - 62.6 °F 61% 29.93 in 6.2 mi ESE 9.2 mph - N/A   Drizzle
5:00 PM 75.2 °F - 62.6 °F 65% 29.97 in 6.2 mi East 8.1 mph - N/A   Mostly Cloudy
6:00 PM 76 °F - 63 °F 55% 29.83 in 12 mi ENE 3.5 mph - -   Overcast
6:00 PM 75.2 °F - 62.6 °F 65% 29.99 in 6.2 mi ENE 3.5 mph - N/A   Mostly Cloudy
7:00 PM 73.4 °F - 66.2 °F 78% 30.00 in 6.2 mi South 2.3 mph - N/A   Mostly Cloudy
8:00 PM 73.4 °F - 64.4 °F 73% 29.99 in 6.2 mi East 6.9 mph - N/A   Mostly Cloudy
9:00 PM 73 °F - 63 °F 64% 29.87 in 12 mi ESE 11.5 mph - -   Scattered Clouds
9:00 PM 73.4 °F - 62.6 °F 69% 30.03 in 6.2 mi ESE 11.5 mph - N/A   Scattered Clouds
10:00 PM 73.4 °F - 62.6 °F 69% 30.03 in 6.2 mi ESE 8.1 mph - N/A   Scattered Clouds
11:00 PM 71.6 °F - 62.6 °F 73% 30.04 in 6.2 mi Calm Calm - N/A   Scattered Clouds